Total_Precipitation_Accumulation
0.18 0.25 0.32 0.34 0.28 0.22 0.19 0.22 0.35 0.36 0.42 0.54 0.69 0.72 0.89 0.95 0.90 0.84 0.76 0.72 0.79 0.94 0.96 0.98 1.05 1.05 1.15 1.17 1.40 1.45 1.53 1.63 1.71 1.64 1.64 1.59 1.55 1.51 1.54 1.61 1.58 1.77 2.00 2.10
0.17 0.19 0.24 0.27 0.28 0.20 0.15 0.13 0.17 0.30 0.53 0.56 0.61 0.67 0.81 0.82 0.81 0.82 0.88 0.92 0.95 1.00 1.09 1.01 0.96 0.89 0.85 0.94 1.17 1.35 1.49 1.42 1.43 1.48 1.41 1.37 1.38 1.38 1.43 1.52 1.64 1.81 1.86 1.89
0.26 0.22 0.28 0.33 0.27 0.21 0.15 0.14 0.15 0.33 0.60 0.61 0.64 0.72 0.84 0.91 0.92 0.81 0.81 0.88 1.01 1.10 1.10 0.94 0.89 0.86 0.89 0.94 1.07 1.20 1.31 1.38 1.46 1.50 1.44 1.38 1.42 1.54 1.55 1.69 1.74 1.73 1.67 1.69
0.38 0.46 0.60 0.40 0.27 0.22 0.23 0.21 0.23 0.29 0.40 0.48 0.64 0.69 0.71 0.78 0.92 0.93 0.95 1.04 1.09 1.08 1.06 1.00 0.98 0.99 1.00 1.00 1.08 1.20 1.23 1.33 1.44 1.48 1.43 1.44 1.44 1.49 1.61 1.78 1.84 1.76 1.59 1.59
0.52 0.62 0.53 0.45 0.38 0.36 0.39 0.40 0.37 0.46 0.46 0.52 0.59 0.67 0.84 0.73 0.78 0.81 0.97 1.02 1.07 1.09 1.11 1.13 1.09 1.14 1.16 1.11 1.16 1.28 1.39 1.47 1.44 1.49 1.55 1.60 1.62 1.67 1.74 1.78 1.79 1.85 1.76 1.68
0.68 0.82 0.83 0.68 0.58 0.51 0.53 0.88 0.67 0.64 0.66 0.75 0.80 0.95 1.14 0.93 0.84 0.91 0.99 0.96 1.01 1.00 1.08 1.18 1.20 1.31 1.35 1.35 1.37 1.44 1.54 1.64 1.68 1.78 1.86 1.84 1.95 2.08 2.10 2.09 2.03 2.09 1.98 1.89
0.89 1.01 1.00 0.79 0.67 0.64 1.08 1.29 0.85 0.76 0.82 0.82 0.87 1.00 1.04 1.04 1.05 1.02 0.86 0.83 0.89 0.99 1.00 1.10 1.29 1.49 1.64 1.62 1.55 1.63 1.76 1.90 2.05 2.16 2.35 2.49 2.58 2.49 2.39 2.39 2.40 2.23 2.09 2.06
1.24 1.42 1.35 0.85 0.80 1.16 1.41 1.08 1.09 0.97 0.92 0.92 0.87 0.95 1.03 1.03 1.00 0.88 0.87 0.87 0.93 1.06 1.07 1.11 1.30 1.49 1.67 1.71 1.72 1.87 2.03 2.22 2.34 2.54 2.63 2.73 3.09 3.12 3.10 3.03 2.76 2.49 2.42 2.28
1.39 1.50 1.23 1.05 1.21 1.31 1.29 1.27 1.33 1.36 1.18 1.08 1.00 1.01 1.05 0.99 0.91 0.84 0.86 0.88 0.94 1.10 1.21 1.24 1.36 1.59 1.86 1.91 1.96 2.09 2.23 2.45 2.59 2.67 2.79 2.92 3.07 3.07 3.07 3.01 2.75 2.56 2.54 2.44
1.53 1.63 1.42 1.34 1.34 1.38 1.36 1.30 1.32 1.41 1.54 1.51 1.25 1.10 1.11 1.07 0.99 0.98 1.03 1.01 1.04 1.16 1.31 1.49 1.61 1.79 2.04 2.10 2.23 2.31 2.37 2.50 2.60 2.70 2.82 2.98 3.11 3.03 2.96 2.89 2.83 2.76 2.70 2.64
1.95 1.93 1.75 1.60 1.63 1.73 1.61 1.48 1.51 1.53 1.57 1.63 1.34 1.12 1.08 1.15 1.13 1.13 1.23 1.26 1.26 1.31 1.43 1.66 1.81 1.97 2.04 2.10 2.31 2.50 2.49 2.54 2.64 2.66 2.68 2.80 2.88 2.98 2.91 2.85 2.87 2.88 2.83 2.83
2.19 2.01 2.07 1.91 1.61 1.69 1.80 1.66 1.66 1.62 1.55 1.41 1.31 1.24 1.27 1.29 1.29 1.29 1.40 1.43 1.43 1.42 1.52 1.71 1.87 2.05 2.17 2.31 2.46 2.60 2.65 2.57 2.60 2.64 2.65 2.66 2.64 2.55 2.56 2.51 2.46 2.37 2.43 2.48
1.78 1.68 1.83 1.82 1.73 1.75 1.92 1.80 1.56 1.50 1.49 1.48 1.42 1.32 1.33 1.34 1.28 1.33 1.41 1.43 1.46 1.52 1.56 1.65 1.78 2.01 2.24 2.48 2.69 2.85 2.83 2.78 2.75 2.83 2.88 2.85 2.83 2.75 2.68 2.59 2.42 2.17 2.03 2.02
1.72 1.74 1.84 1.92 1.99 1.89 1.90 1.80 1.56 1.41 1.37 1.43 1.47 1.36 1.31 1.33 1.33 1.41 1.52 1.45 1.40 1.48 1.60 1.65 1.71 1.90 2.14 2.37 2.63 2.83 2.83 2.88 2.87 2.84 2.89 2.91 2.88 2.85 2.77 2.63 2.51 2.31 2.04 1.90
1.85 1.92 2.03 2.02 2.06 2.01 1.95 1.81 1.79 1.59 1.44 1.42 1.47 1.48 1.44 1.42 1.45 1.41 1.43 1.34 1.29 1.34 1.46 1.66 1.78 1.84 1.98 2.08 2.20 2.42 2.54 2.63 2.69 2.67 2.63 2.70 2.78 2.76 2.67 2.56 2.42 2.26 1.99 1.90
1.89 1.97 1.98 1.99 2.04 2.03 1.97 1.90 1.82 1.65 1.52 1.56 1.59 1.48 1.47 1.49 1.45 1.37 1.32 1.36 1.43 1.47 1.51 1.68 1.78 1.88 2.07 2.21 2.32 2.40 2.48 2.58 2.55 2.46 2.34 2.31 2.33 2.39 2.35 2.36 2.33 2.24 2.10 1.95
2.04 2.10 2.06 2.07 1.98 1.96 2.01 2.02 1.89 1.70 1.56 1.54 1.58 1.55 1.41 1.31 1.30 1.29 1.27 1.28 1.32 1.41 1.53 1.68 1.75 1.76 1.98 2.29 2.46 2.42 2.37 2.34 2.36 2.27 2.13 2.05 2.10 2.18 2.27 2.33 2.26 2.14 2.03 1.94
2.01 1.97 1.93 1.98 1.97 1.92 1.91 1.89 1.94 1.82 1.62 1.54 1.49 1.50 1.50 1.42 1.27 1.20 1.19 1.24 1.28 1.28 1.31 1.45 1.56 1.63 1.76 2.00 2.26 2.31 2.27 2.18 2.07 2.02 2.00 1.96 1.93 1.99 2.07 2.07 1.95 1.86 1.76 1.63
1.84 1.80 1.77 1.75 1.84 1.91 1.93 1.86 1.89 1.85 1.69 1.64 1.64 1.62 1.58 1.57 1.42 1.30 1.25 1.27 1.40 1.47 1.36 1.39 1.56 1.54 1.64 1.82 2.02 2.08 2.11 2.14 2.05 1.89 1.86 1.95 1.85 1.82 1.77 1.72 1.65 1.57 1.46 1.44
1.82 1.76 1.77 1.86 1.95 2.08 2.14 1.97 1.80 1.80 1.82 1.76 1.75 1.74 1.67 1.66 1.62 1.55 1.51 1.46 1.58 1.65 1.61 1.57 1.45 1.45 1.58 1.84 1.97 1.92 1.94 1.98 1.94 1.86 1.83 1.82 1.76 1.71 1.56 1.52 1.51 1.48 1.43 1.43
1.96 1.89 1.93 1.97 1.94 2.03 2.12 1.99 1.75 1.73 1.73 1.73 1.74 1.75 1.70 1.71 1.71 1.76 1.81 1.77 1.63 1.59 1.51 1.54 1.44 1.44 1.47 1.69 1.81 1.80 1.78 1.77 1.79 1.77 1.77 1.78 1.74 1.67 1.56 1.54 1.51 1.46 1.38 1.33
2.13 1.99 1.94 1.94 1.83 1.81 1.93 1.94 1.69 1.56 1.55 1.61 1.65 1.63 1.65 1.68 1.76 1.85 1.78 1.77 1.73 1.69 1.45 1.40 1.44 1.47 1.46 1.49 1.52 1.69 1.76 1.70 1.64 1.60 1.61 1.57 1.59 1.62 1.54 1.47 1.40 1.28 1.20 1.17
2.11 1.98 1.82 1.80 1.80 1.77 1.73 1.68 1.57 1.52 1.55 1.61 1.70 1.80 1.83 1.74 1.73 1.95 1.95 1.64 1.56 1.51 1.38 1.37 1.37 1.31 1.23 1.25 1.40 1.55 1.65 1.66 1.64 1.55 1.50 1.46 1.40 1.39 1.36 1.30 1.23 1.16 1.14 1.13
1.86 1.88 1.77 1.69 1.73 1.71 1.70 1.66 1.61 1.53 1.52 1.60 1.68 1.84 1.98 1.98 1.88 1.81 1.80 1.72 1.52 1.34 1.21 1.20 1.14 1.08 1.08 1.07 1.25 1.40 1.52 1.53 1.51 1.42 1.33 1.29 1.19 1.17 1.19 1.17 1.12 1.11 1.10 1.06
1.61 1.55 1.59 1.66 1.67 1.73 1.70 1.63 1.58 1.48 1.49 1.57 1.58 1.71 1.92 2.02 2.04 1.89 1.62 1.43 1.36 1.25 1.12 1.10 1.12 1.11 1.06 1.07 1.21 1.38 1.48 1.48 1.48 1.38 1.25 1.19 1.10 1.06 1.10 1.11 1.08 1.04 1.00 0.97
1.56 1.52 1.62 1.70 1.65 1.69 1.67 1.63 1.66 1.61 1.63 1.71 1.69 1.71 1.75 1.68 1.63 1.60 1.52 1.39 1.29 1.24 1.14 1.13 1.13 1.10 1.07 1.18 1.27 1.35 1.41 1.39 1.37 1.30 1.17 1.10 1.02 1.01 1.07 1.08 1.03 1.01 0.93 0.88
1.56 1.57 1.65 1.73 1.78 1.75 1.70 1.68 1.68 1.71 1.81 1.95 2.10 2.03 1.92 1.82 1.73 1.57 1.41 1.35 1.26 1.20 1.21 1.20 1.11 1.03 1.05 1.19 1.29 1.34 1.35 1.30 1.19 1.12 1.11 1.06 1.00 1.00 1.04 1.00 0.93 0.88 0.82 0.79